Morrisville, VT

10:00 AM EST on December 05, 2016 (GMT -0500)
Morrisville Stowe State

Weather History for KMVL - September, 2013

Change the Weather History Date:

Sunday, September 8, 2013

  Actual Average Record
Temperature  
Mean Temperature 51 °F 61 °F  
Max Temperature 61 °F 73 °F 91 °F (2002)
Min Temperature 40 °F 49 °F 40 °F (2013)
Degree Days  
Heating Degree Days 14 5  
Month to date heating degree days 45 36  
Since 1 July heating degree days 114 131  
Growing Degree Days 2 (Base 50)    
Moisture  
Dew Point 45 °F    
Average Humidity 67    
Maximum Humidity 92    
Minimum Humidity 42    
Precipitation  
Precipitation 0.18 in 0.09 in 0.77 in (1999)
Month to date precipitation 0.77 0.76  
Year to date precipitation 31.03 24.52  
Sea Level Pressure  
Sea Level Pressure 29.93 in    
Wind  
Wind Speed 6 mph (NNW)    
Max Wind Speed 16 mph    
Max Gust Speed 24 mph    
Visibility 10 miles    
Events Rain    
T = Trace of Precipitation, MM = Missing Value Source: NWS Daily Summary

Daily Weather History Graph

Daily Weather History Graph

Search for Another Location

Airport or City:

Trip Planner

Search our weather history database for the weather conditions in past years. The results will help you decide how hot, cold, wet, or windy it might be!

Date:

Astronomy

Sep. 08, 2013 Rise Set
Actual Time 6:21 AM EDT 7:13 PM EDT
Civil Twilight 5:51 AM EDT 7:43 PM EDT
Nautical Twilight 5:16 AM EDT 8:18 PM EDT
Astronomical Twilight 4:39 AM EDT 8:55 PM EDT
Moon 9:45 AM EDT (9/8) 8:36 PM EDT (9/8)
Length of Visible Light 13h 51m
Length of Day
12h 52m
Waxing Crescent, 11% of the Moon is Illuminated
Sep 8
Waxing Crescent
Sep 12
First Quarter
Sep 19
Full
Sep 26
Last Quarter
Oct 4
New

Hourly Weather History & Observations

Time (EDT) Temp. Windchill Dew Point Humidity Pressure Visibility Wind Dir Wind Speed Gust Speed Precip Events Conditions
12:54 AM 61.0 °F - 50.0 °F 67% 29.84 in 10.0 mi Variable 3.5 mph - 0.00 in   Overcast
1:39 AM 59.0 °F - 51.8 °F 77% 29.84 in 10.0 mi Calm Calm - N/A   Overcast
1:54 AM 59.0 °F - 51.1 °F 75% 29.83 in 10.0 mi Calm Calm - N/A   Overcast
2:54 AM 57.9 °F - 53.1 °F 84% 29.82 in 10.0 mi Calm Calm - 0.00 in   Overcast
3:54 AM 57.9 °F - 53.1 °F 84% 29.80 in 10.0 mi Variable 3.5 mph - N/A   Overcast
4:54 AM 57.9 °F - 53.1 °F 84% 29.78 in 10.0 mi Calm Calm - 0.00 in   Overcast
5:54 AM 55.9 °F - 54.0 °F 93% 29.81 in 5.0 mi North 5.8 mph - 0.08 in Rain Rain
6:07 AM 55.4 °F - 53.6 °F 94% 29.81 in 2.5 mi North 6.9 mph - 0.09 in Rain Rain
6:16 AM 55.4 °F - 53.6 °F 94% 29.82 in 8.0 mi Variable 4.6 mph - 0.09 in Rain Light Rain
6:23 AM 55.4 °F - 53.6 °F 94% 29.82 in 10.0 mi NNW 9.2 mph - 0.09 in   Overcast
6:54 AM 53.1 °F - 48.9 °F 86% 29.85 in 10.0 mi NNW 10.4 mph 20.7 mph 0.10 in Rain Light Rain
7:11 AM 53.6 °F - 48.2 °F 82% 29.86 in 10.0 mi NW 9.2 mph - 0.00 in Rain Light Rain
7:54 AM 53.1 °F - 48.0 °F 83% 29.89 in 10.0 mi NNW 9.2 mph - 0.00 in   Overcast
8:54 AM 57.0 °F - 46.9 °F 69% 29.89 in 10.0 mi North 9.2 mph - N/A   Mostly Cloudy
9:45 AM 53.6 °F - 44.6 °F 72% 29.92 in 10.0 mi North 9.2 mph 23.0 mph N/A   Overcast
9:54 AM 55.0 °F - 44.1 °F 67% 29.94 in 10.0 mi NW 11.5 mph 18.4 mph N/A   Overcast
10:11 AM 53.6 °F - 42.8 °F 67% 29.93 in 10.0 mi NNW 8.1 mph - N/A   Overcast
10:18 AM 53.6 °F - 42.8 °F 67% 29.93 in 10.0 mi NNW 11.5 mph 16.1 mph N/A   Mostly Cloudy
10:50 AM 51.8 °F - 42.8 °F 71% 29.95 in 10.0 mi NW 9.2 mph 18.4 mph N/A   Overcast
10:54 AM 51.1 °F - 42.1 °F 71% 29.95 in 10.0 mi NNW 10.4 mph 17.3 mph N/A   Overcast
11:54 AM 53.1 °F - 42.1 °F 66% 29.96 in 10.0 mi NNW 8.1 mph 16.1 mph N/A   Overcast
12:54 PM 55.0 °F - 42.1 °F 62% 29.97 in 10.0 mi NW 12.7 mph 18.4 mph N/A   Mostly Cloudy
1:54 PM 55.9 °F - 39.9 °F 55% 29.98 in 10.0 mi NNW 13.8 mph 19.6 mph N/A   Mostly Cloudy
2:54 PM 59.0 °F - 39.0 °F 48% 29.97 in 10.0 mi NNW 11.5 mph 19.6 mph N/A   Partly Cloudy
3:54 PM 60.1 °F - 37.9 °F 44% 29.98 in 10.0 mi NNW 12.7 mph 18.4 mph N/A   Scattered Clouds
4:54 PM 57.9 °F - 37.9 °F 47% 30.00 in 10.0 mi NNW 6.9 mph 17.3 mph N/A   Scattered Clouds
5:54 PM 57.9 °F - 39.9 °F 51% 30.01 in 10.0 mi Calm Calm - N/A   Overcast
6:54 PM 55.9 °F - 37.9 °F 51% 30.03 in 10.0 mi WNW 4.6 mph - N/A   Mostly Cloudy
7:54 PM 53.1 °F - 37.0 °F 55% 30.06 in 10.0 mi NW 6.9 mph - N/A   Clear
8:54 PM 48.9 °F - 37.9 °F 66% 30.09 in 10.0 mi NW 5.8 mph - N/A   Clear
9:54 PM 46.0 °F - 37.9 °F 73% 30.11 in 10.0 mi Calm Calm - N/A   Clear
10:54 PM 43.0 °F - 37.9 °F 82% 30.11 in 10.0 mi Calm Calm - N/A   Clear
11:54 PM 39.9 °F 37.8 °F 37.9 °F 93% 30.13 in 10.0 mi South 3.5 mph - N/A   Clear